Home > Weather > Maceió > Past weeks

Flag for Brazil Weather for the Past 2 Weeks in Maceió, Alagoas, Brazil

Now
82 °F

Scattered showers. Broken clouds.


Feels Like: 89 °F
Forecast: 76 / 85 °F
Wind: 10 mph from South

Location: Maceio Aeroporto

Current Time: May 1, 2016 at 11:47:50 AM

Latest Report: May 1, 2016 at 11:00 AM


Visibility: N/A

Pressure: N/A

Humidity: 79%

Dew Point: 75 °F

Location of MaceióLocation

Historic Weather in Maceió — Graph

°F

Maceió Temperature Yesterday

Maximum temperature yesterday: 86 °F (at 11:00 AM)
Minimum temperature yesterday: 72 °F (at 4:00 AM)
Average temperature yesterday: 79 °F

High & Low Weather Summary for the Past Weeks

 TemperatureHumidityPressure
High88 °F (Apr 17, 2:00 PM)100% (Apr 16, 11:00 PM)30.04 "Hg (Apr 16, 11:00 PM)
Low41 °F (Apr 24, 5:00 PM)55% (Apr 19, 11:00 AM)29.83 "Hg (Apr 25, 3:00 PM)
Average78 °F86%29.95 "Hg
* Reported Apr 16 10:00 AM — May 1 10:00 AM, Maceió, Weather by CustomWeather, © 2016

Note: Actual official high and low records may vary slightly from our data, if they occured in-between our weather recording intervals... More about our weather records

Advertising

Maceió Weather History for the Previous 24 Hours

Scroll right to see more
 ConditionsComfort  
Time TempWeatherWind HumidityBarometerVisibility
10:00 AM
Sun, May 1
82 °FScattered showers. Partly sunny.7 mph79%29.98 "HgN/A
9:00 AM79 °FScattered showers. Broken clouds.6 mph89%29.98 "HgN/A
8:00 AM75 °FLight rain. Broken clouds.5 mph100%29.98 "Hg4 mi
7:00 AM73 °FPartly sunny.3 mph94%29.95 "HgN/A
6:00 AM72 °FPartly sunny.2 mph100%29.92 "HgN/A
5:00 AM72 °FPassing clouds.3 mph94%29.89 "HgN/A
4:00 AM72 °FPassing clouds.6 mph100%29.89 "HgN/A
3:00 AM72 °FPassing clouds.3 mph94%29.89 "HgN/A
2:00 AM73 °FPassing clouds.3 mph94%29.89 "HgN/A
1:00 AM73 °FPassing clouds.5 mph94%29.92 "HgN/A
12:00 AM73 °FPassing clouds.5 mph94%29.92 "HgN/A
11:00 PM
Sat, Apr 30
73 °FPassing clouds.5 mph94%29.95 "HgN/A
10:00 PM73 °FPassing clouds.No wind94%29.95 "HgN/A
9:00 PM75 °FPassing clouds.5 mph89%29.98 "HgN/A
8:00 PM75 °FPassing clouds.2 mph94%29.95 "HgN/A
7:00 PM77 °FPassing clouds.5 mph89%29.92 "HgN/A
6:00 PM79 °FPassing clouds.5 mph84%29.92 "HgN/A
5:00 PM82 °FScattered clouds.7 mph74%29.89 "HgN/A
4:00 PM84 °FScattered clouds.12 mph70%29.89 "HgN/A
3:00 PM86 °FScattered clouds.13 mph66%29.89 "HgN/A
2:00 PM86 °FScattered clouds.9 mph62%29.89 "HgN/A
1:00 PM86 °FScattered clouds.9 mph59%29.92 "HgN/A
12:00 PM86 °FPassing clouds.12 mph62%29.95 "HgN/A
11:00 AM86 °FScattered clouds.12 mph66%29.95 "HgN/A
Weather by CustomWeather, © 2016

See weather overviewHow to use our weather pages